Regional Weather Roundup
Issued by NWS

Home | Current Version | Previous Version | Text Only | Print | Product List | Glossary Off
Versions: 1 2 3 4 5 6 7 8 9 10 11 12 13 14 15 16 17 18 19 20 21 22 23 24 25 26 27 28 29 30 31 32 33 34 35 36 37 38 39 40 41 42 43 44 45 46 47 48 49 50

000
ASUS43 KLMK 221502
RWRKY
KENTUCKY REGIONAL WEATHER ROUNDUP
NATIONAL WEATHER SERVICE LOUISVILLE KY
1100 AM EDT SAT APR 22 2017

NOTE "FAIR" INDICATES FEW OR NO CLOUDS BELOW 12,000 FEET
WITH NO SIGNIFICANT WEATHER AND/OR OBSTRUCTIONS TO VISIBILITY.

KYZ001>023-026-027-061>063-070>075-221600-
WESTERN AND SOUTH CENTRAL KENTUCKY

CITY           SKY/WX    TMP DP  RH WIND       PRES   REMARKS
PADUCAH        LGT RAIN  49  46  90 NE16      29.97R FOG
HENDERSON      LGT RAIN  48  46  93 NE13      30.02R
OWENSBORO      CLOUDY    51  46  83 VRB7      30.01R
HOPKINSVILLE   RAIN      55  53  95 NE7       29.94R FOG
BOWLING GREEN  CLOUDY    56  53  90 NE12      29.93R
GLASGOW        NOT AVBL
$$

KYZ024-025-028>034-038-045-046-053-221600-
NORTH CENTRAL KENTUCKY

CITY           SKY/WX    TMP DP  RH WIND       PRES   REMARKS
LOUISVILLE/SDF CLOUDY    50  45  83 NE15      30.01R
LOUISVILLE/LOU LGT RAIN  49  44  83 NE10G17   30.02R
FORT KNOX      CLOUDY    48  47  95 NE13G18   29.96R
$$

KYZ035>037-039>044-047>052-055>060-089>105-221600-
NORTHEAST KENTUCKY

CITY           SKY/WX    TMP DP  RH WIND       PRES   REMARKS
LEXINGTON      CLOUDY    50  46  86 NE15      29.98R
COVINGTON      CLOUDY    49  39  68 NE15      30.04R
FRANKFORT      CLOUDY    49  44  83 NE10      29.99R
$$

KYZ054-064>069-076>088-106>120-221600-
SOUTHEAST KENTUCKY

CITY           SKY/WX    TMP DP  RH WIND       PRES   REMARKS
JACKSON        RAIN      49  48  97 VRB5      29.97F FOG
LONDON         RAIN      51  48  89 SE7       29.93F FOG
SOMERSET       NOT AVBL
MIDDLESBORO    RAIN      55  55  99 CALM      29.95R
MONTICELLO     CLOUDY    54  51  90 NW3       29.94R
$$





USA.gov is the U.S. government's official web portal to all federal, state and local government web resources and services.